This demonstration page uses our WeatherBlox Daily Observations layout. Learn more.

Hourly Observations for November 3, 2015

Temp ( °F °C ) Dew Point ( °F °C ) Humidity (%) Winds ( mph kmh ) Pressure ( in mb ) Visibility ( mi km ) Precip ( " mm )
12:15 am 00:15 Clear 54 12 45 7 72 72 S 15 24 29.8 1009 10 16.09344 0 0
12:35 am 00:35 Clear 54 12 45 7 72 72 SSE 14 22 29.8 1009 10 16.09344 0 0
12:55 am 00:55 Clear 54 12 45 7 72 72 SSE 14 22 29.8 1009 10 16.09344 0 0
1:15 am 01:15 Clear 52 11 45 7 77 77 S 12 19 29.8 1009 10 16.09344 0 0
1:35 am 01:35 Clear 50 10 45 7 82 82 SSE 9 15 29.83 1010 10 16.09344 0 0
1:55 am 01:55 Clear 50 10 45 7 82 82 SSE 9 15 29.83 1010 10 16.09344 0 0
2:15 am 02:15 Clear 50 10 46 8 88 88 SSE 9 15 29.8 1009 10 16.09344 0 0
2:35 am 02:35 Clear 48 9 45 7 87 87 SSE 7 11 29.8 1009 10 16.09344 0 0
2:55 am 02:55 Clear 48 9 46 8 94 94 SSE 9 15 29.8 1009 10 16.09344 0 0
3:15 am 03:15 Clear 50 10 46 8 88 88 SSE 8 13 29.8 1009 10 16.09344 0 0
3:35 am 03:35 Clear 48 9 46 8 94 94 SSE 9 15 29.8 1009 10 16.09344 0 0
3:55 am 03:55 Clear 50 10 46 8 88 88 SSE 10 17 29.8 1009 10 16.09344 0 0
4:15 am 04:15 Clear 50 10 46 8 88 88 SSE 10 17 29.8 1009 10 16.09344 0 0
4:35 am 04:35 Clear 48 9 46 8 94 94 SSE 9 15 29.8 1009 10 16.09344 0 0
4:55 am 04:55 Clear 48 9 46 8 94 94 SSE 9 15 29.8 1009 10 16.09344 0 0
5:15 am 05:15 Clear 48 9 45 7 87 87 SSE 9 15 29.8 1009 10 16.09344 0 0
5:35 am 05:35 Clear 48 9 46 8 94 94 SSE 12 19 29.8 1009 10 16.09344 0 0
5:55 am 05:55 Clear 48 9 46 8 94 94 SSE 12 19 29.8 1009 10 16.09344 0 0
6:15 am 06:15 Clear 48 9 46 8 94 94 SSE 12 19 29.8 1009 10 16.09344 0 0
6:35 am 06:35 Clear 46 8 45 7 93 93 SSE 12 19 29.8 1009 10 16.09344 0 0
6:55 am 06:55 Clear 46 8 46 8 100 100 SSE 12 19 29.8 1009 10 16.09344 0 0
7:15 am 07:15 Sunny 46 8 45 7 93 93 SSE 8 13 29.8 1009 7 11.265408 0 0
7:35 am 07:35 Sunny with Mist and Fog 46 8 46 8 100 100 SSE 10 17 29.8 1009 5 8.04672 0 0
7:55 am 07:55 Sunny 48 9 46 8 94 94 SSE 13 20 29.8 1009 7 11.265408 0 0
8:15 am 08:15 Partly Cloudy 50 10 48 9 94 94 S 13 20 29.8 1009 7 11.265408 0 0
8:35 am 08:35 Mostly Cloudy 50 10 48 9 94 94 S 13 20 29.8 1009 7 11.265408 0 0
8:55 am 08:55 Mostly Cloudy 52 11 50 10 94 94 S 12 19 29.77 1008 10 16.09344 0 0
9:15 am 09:15 Partly Cloudy 54 12 50 10 88 88 S 13 20 29.77 1008 10 16.09344 0 0
9:35 am 09:35 Sunny 55 13 50 10 82 82 S 10 17 29.77 1008 10 16.09344 0 0
9:55 am 09:55 Sunny 55 13 50 10 82 82 S 15 24 29.77 1008 10 16.09344 0 0
10:15 am 10:15 Sunny 57 14 48 9 72 72 S 15 24 29.74 1007 10 16.09344 0 0
10:35 am 10:35 Sunny 59 15 48 9 68 68 S 17 28 29.74 1007 10 16.09344 0 0
10:55 am 10:55 Sunny 59 15 48 9 68 68 S 15 24 29.74 1007 10 16.09344 0 0
11:15 am 11:15 Sunny 61 16 48 9 63 63 S 16 26 29.74 1007 10 16.09344 0 0
11:35 am 11:35 Sunny 63 17 46 8 56 56 S 14 22 29.74 1007 10 16.09344 0 0
11:55 am 11:55 Sunny 64 18 46 8 52 52 S 17 28 29.71 1006 10 16.09344 0 0
12:15 pm 12:15 Sunny 66 19 46 8 49 49 S 15 24 29.71 1006 10 16.09344 0 0
12:35 pm 12:35 Sunny 68 20 46 8 46 46 S 17 28 29.71 1006 10 16.09344 0 0
12:55 pm 12:55 Sunny 70 21 45 7 40 40 S 16 26 29.65 1004 10 16.09344 0 0
1:15 pm 13:15 Sunny 72 22 45 7 38 38 S 15 24 29.65 1004 10 16.09344 0 0
1:35 pm 13:35 Sunny 73 23 45 7 36 36 S 20 31 29.65 1004 10 16.09344 0 0
1:55 pm 13:55 Sunny 73 23 45 7 36 36 S 20 31 29.65 1004 10 16.09344 0 0
2:15 pm 14:15 Sunny 73 23 45 7 36 36 S 18 30 29.62 1003 10 16.09344 0 0
2:35 pm 14:35 Sunny 73 23 45 7 36 36 S 17 28 29.62 1003 10 16.09344 0 0
2:55 pm 14:55 Sunny 75 24 45 7 34 34 S 18 30 29.59 1002 10 16.09344 0 0
3:15 pm 15:15 Sunny 77 25 43 6 30 30 S 18 30 29.59 1002 10 16.09344 0 0
3:35 pm 15:35 Sunny 77 25 43 6 30 30 S 22 35 29.59 1002 10 16.09344 0 0
3:55 pm 15:55 Sunny 77 25 43 6 30 30 S 17 28 29.59 1002 10 16.09344 0 0
4:15 pm 16:15 Sunny 77 25 43 6 30 30 S 23 37 29.59 1002 10 16.09344 0 0
4:35 pm 16:35 Sunny 75 24 43 6 31 31 S 20 31 29.59 1002 10 16.09344 0 0
4:55 pm 16:55 Sunny 75 24 43 6 31 31 S 15 24 29.59 1002 10 16.09344 0 0
5:15 pm 17:15 Sunny 73 23 43 6 33 33 S 16 26 29.62 1003 10 16.09344 0 0
5:35 pm 17:35 Clear 72 22 45 7 38 38 S 14 22 29.62 1003 10 16.09344 0 0
5:55 pm 17:55 Clear 70 21 45 7 40 40 S 13 20 29.62 1003 10 16.09344 0 0
6:15 pm 18:15 Clear 68 20 45 7 43 43 S 12 19 29.65 1004 10 16.09344 0 0
6:35 pm 18:35 Clear 66 19 45 7 46 46 S 12 19 29.68 1005 10 16.09344 0 0
6:55 pm 18:55 Clear 64 18 45 7 49 49 S 12 19 29.68 1005 10 16.09344 0 0
7:15 pm 19:15 Clear 64 18 45 7 49 49 S 10 17 29.68 1005 10 16.09344 0 0
7:35 pm 19:35 Clear 64 18 45 7 49 49 S 14 22 29.68 1005 10 16.09344 0 0
7:55 pm 19:55 Clear 66 19 46 8 49 49 S 16 26 29.68 1005 10 16.09344 0 0
8:15 pm 20:15 Clear 64 18 46 8 52 52 SSE 14 22 29.68 1005 10 16.09344 0 0
8:35 pm 20:35 Clear 63 17 46 8 56 56 SSE 13 20 29.74 1007 10 16.09344 0 0
8:55 pm 20:55 Clear 63 17 48 9 59 59 S 15 24 29.74 1007 10 16.09344 0 0
9:15 pm 21:15 Clear 63 17 48 9 59 59 S 15 24 29.74 1007 10 16.09344 0 0
9:35 pm 21:35 Clear 63 17 48 9 59 59 S 15 24 29.74 1007 10 16.09344 0 0
9:55 pm 21:55 Clear 61 16 50 10 68 68 S 13 20 29.74 1007 10 16.09344 0 0
10:15 pm 22:15 Clear 61 16 50 10 68 68 S 13 20 29.74 1007 10 16.09344 0 0
10:35 pm 22:35 Clear 61 16 50 10 68 68 S 14 22 29.74 1007 10 16.09344 0 0
10:55 pm 22:55 Clear 59 15 50 10 72 72 S 14 22 29.74 1007 10 16.09344 0 0
11:15 pm 23:15 Clear 59 15 50 10 72 72 S 17 28 29.74 1007 10 16.09344 0 0
11:35 pm 23:35 Clear 59 15 50 10 72 72 S 17 28 29.74 1007 10 16.09344 0 0
11:55 pm 23:55 Clear 59 15 50 10 72 72 S 15 24 29.74 1007 10 16.09344 0 0

Powered by AerisWeather